Regional Weather Roundup
Issued by NWS

Home | Current Version | Previous Version | Graphics & Text | Print | Product List | Glossary On
Versions: 1 2 3 4 5 6 7 8 9 10 11 12 13 14 15 16 17 18 19 20 21 22 23 24 25 26 27 28 29 30 31 32 33 34 35 36 37 38 39 40 41 42 43 44 45 46 47 48 49 50
000
ASUS43 KMKX 300511
RWRWI

WISCONSIN REGIONAL WEATHER ROUNDUP
NATIONAL WEATHER SERVICE MILWAUKEE/SULLIVAN WI
1200 AM CDT TUE MAY 30 2017

NOTE: "FAIR" INDICATES FEW OR NO CLOUDS BELOW 12,000 FEET WITH NO
SIGNIFICANT WEATHER AND/OR OBSTRUCTIONS TO VISIBILITY.

WIZ001-002-006>008-014>016-023>028-300600-
NORTHWEST WISCONSIN

CITY           SKY/WX    TMP DP  RH WIND       PRES   REMARKS
SUPERIOR ARPT  NOT AVBL
ASHLAND        CLOUDY    52  45  77 SW7       29.76F
HAYWARD        CLOUDY    51  47  86 SW5       29.80S
SIREN          CLOUDY    53  46  76 W8        29.83S
CUMBERLAND     CLOUDY    50  45  81 W8        29.83S
RICE LAKE      CLOUDY    52  46  80 SW5       29.85S
CHETEK         MOCLDY    49  46  90 SW3       29.84S
LADYSMITH      CLEAR     50  47  90 SW5       29.83F
EAU CLAIRE     CLOUDY    51  47  86 SW5       29.83F
MENOMONIE      CLOUDY    55  47  76 W7        29.85S
NEW RICHMOND   CLOUDY    53  46  79 W7        29.86S
OSCEOLA        CLOUDY    53  48  83 W7        29.87F
$$

WIZ003>005-009-010-017-018-300600-
NORTH CENTRAL WISCONSIN

CITY           SKY/WX    TMP DP  RH WIND       PRES   REMARKS
MANITOWISH WTR CLEAR     47  47  97 W5        29.77S
ARBOR VITAE    CLOUDY    52  46  82 W6        29.77S
WOODRUFF       CLOUDY    52  46  82 W6        29.77S
RHINELANDER    CLOUDY    52  50  93 W8        29.78S
EAGLE RIVER    CLOUDY    50  48  92 W7        29.76S
LAND O LAKES   CLOUDY    50  48  93 W3        29.77F
PHILLIPS       CLOUDY    49  49 100 W5        29.80S
TOMAHAWK       MOCLDY    49  48  94 W6        29.80S
MEDFORD        MOCLDY    50  48  93 W7        29.81S
MERRILL        CLOUDY    52  50  93 W5        29.81R
$$

WIZ029-030-035-036-043>047-300600-
CENTRAL WISCONSIN

CITY           SKY/WX    TMP DP  RH WIND       PRES   REMARKS
WAUSAU         CLOUDY    52  50  93 W10       29.80R
MOSINEE        CLOUDY    50  50 100 W7        29.83S
MARSHFIELD     MOCLDY    52  48  86 W8        29.82S
STEVENS POINT  RAIN      51  50  99 W6        29.83S
WAUPACA        MOCLDY    56  50  80 W8        29.82F
WAUTOMA        MOCLDY    52  51  97 W7        29.84F
WISC RAPIDS    CLOUDY    53  49  86 SW7       29.85S
CAMP DOUGLAS   CLEAR     52  49  87 W8        29.86R
$$

WIZ011>013-019>022-031-037>040-048>050-300600-
NORTHEAST WISCONSIN

CITY           SKY/WX    TMP DP  RH WIND       PRES   REMARKS
ANTIGO         CLOUDY    49  49  99 W7        29.80S
SHAWANO        MOCLDY    54  50  85 SW7       29.79F
OCONTO         CLOUDY    52  49  90 SW3       29.78F
STURGEON BAY   CLOUDY    54  50  86 SW9       29.78F
GREEN BAY      CLEAR     56  49  77 SW6       29.80S
MANITOWOC      CLEAR     57  48  72 W9        29.81S
APPLETON       PTCLDY    54  45  71 W8        29.81S
CLINTONVILLE   PTCLDY    54  46  76 W7        29.81S
OSHKOSH        PTCLDY    54  48  80 W5        29.82S
$$

WIZ032>034-041-042-053>061-300600-
SOUTHWEST WISCONSIN

CITY           SKY/WX    TMP DP  RH WIND       PRES   REMARKS
LA CROSSE      CLEAR     57  49  74 W7        29.87S
SPARTA         CLEAR     50  48  93 CALM      29.88S
VIROQUA        CLEAR     52  48  87 N7        29.89S
BOSCOBEL       CLEAR     55  47  74 CALM      29.90S
PRAIRIE DU CHI PTCLDY    56  46  67 W7        29.90S
PLATTEVILLE    CLEAR     53  48  84 W7        29.91S
$$

WIZ056-057-062-063-064-067-068-300600-
SOUTH CENTRAL WISCONSIN

CITY           SKY/WX    TMP DP  RH WIND       PRES   REMARKS
REEDSBURG      MOCLDY    55  50  84 W8        29.87S
BARABOO/DELLS  MOCLDY    53  48  81 W5        29.87S
LONE ROCK      CLEAR     56  47  71 W5        29.88S
MINERAL POINT  CLEAR     55  46  71 W6        29.90S
MADISON        CLEAR     55  49  80 VRB3      29.86F
MIDDLETON      CLEAR     54  48  81 W8        29.88S
WATERTOWN      CLEAR     52  52 100 CALM      29.86S
MONROE         CLEAR     55  45  67 W13       29.89F
JANESVILLE     CLEAR     55  46  71 W7        29.88S
$$

WIZ051-052-058>065-066-070>072-300600-
SOUTHEAST WISCONSIN

CITY           SKY/WX    TMP DP  RH WIND       PRES   REMARKS
MILWAUKEE      PTCLDY    56  51  84 SW7       29.86F
WAUKESHA       CLEAR     50  45  81 SW5       29.87S
MILWAUKEE/TIMM   N/A     52  45  76 SW3       29.86F
RACINE         PTCLDY    55  47  74 SW7       29.88S
KENOSHA        MOCLDY    54  47  77 SW3       29.87F
FOND DU LAC    CLEAR     54  47  77 W7        29.83F
SHEBOYGAN      CLEAR     53  50  89 W7        29.82F
WEST BEND      CLEAR     54  48  82 W7        29.84F
JUNEAU         CLEAR     52  48  87 W5        29.86F
$$

LSZ147-162-300600-
LAKE SUPERIOR

STATION/POSITION TIME  TEMP    WIND        PRES    WAVE
                       AIR SEA DIR/SP/G            HT/PER
                 (UTC) (F)     (DEG/KT/KT) (MB)    (FT/S)
W MID LAKE BUOY  0450   42 37  240/ 14/ 16 1006.3R   2/ 4
DEVILS ISLAND    0500   47     260/ 15/ 16 1007.3S
SAXON HARBOR     0440   52     200/  5/  6 1007.8S
$$

LMZ867-665-643>646-300600-
LAKE MICHIGAN

STATION/POSITION TIME  TEMP    WIND        PRES    WAVE
                       AIR SEA DIR/SP/G            HT/PER
                 (UTC) (F)     (DEG/KT/KT) (MB)    (FT/S)
CHAMBERS ISLAND  0440   54     200/  7/ 13 1007.5R
N MID LAKE BUOY  0450   46 41  220/ 10/ 12 1007.9R   2/ 4
NORTHPORT PIER   0440   57     270/  5/ 10 1007.1S
KEWAUNEE LAKESHO 0448   57     240/  4/  6 1008.6R
SHEBOYGAN LAKESH 0500   57     250/ 10/ 12 1009.6F
PORT WASHINGTON  0440   58     260/  4/  7 1011.5S
ATWATER BUOY     0409   54     250/  6/  6 1011.1F
MILWAUKEE LAKESH 0430   59     250/  6/  8   N/A
S MID LAKE BUOY  0350   54 48  330/ 12/ 12 1011.5F   1/ 4
KENOSHA   LAKESH 0500   61     260/  3/  5 1011.5
$$

TC  - TEMPERATURE IN CELSIUS
VSB - VISIBILITY IN STATUTE MILES
WCI - WIND CHILL INDEX
HX  - HEAT INDEX





USA.gov is the U.S. government's official web portal to all federal, state and local government web resources and services.